Вернуться в каталог

STARLINK-4142

АктивенСвязьVLEO
NORAD 53255·PAYLOAD·🇺🇸 United States

Запущен Jul 24, 2022 с Cape Canaveral Space Force Station

Loading…

Ближайшие Пролёты (ближайшие 24 часа)

TLE

СвежийSource: CelesTrak SupGP

Эпоха: Sep 15, 2026, 02:42 UTC

1 53255C 22086P   26258.11298611 -.00035224  00000+0 -13289-2 0  2580
2 53255  53.1565  59.7379 0001299  90.2732  88.3824 15.26524422    18

Отслеживайте STARLINK-4142 в реальном времени с AllMySat

Download on the App Store